| time (UTC) | temp F | wind direction | speed knots | gust knots | rain 1hr in | rain 24hr in | rain mn in | humidity % | barometer mb |
| 20260504032903 | 65 | 237 | 1.7 | 2.6 | 0.00 | 0.00 | 0.00 | 59 | 1011.2 |
| 20260504032400 | 65 | 236 | 1.7 | 3.5 | 0.00 | 0.00 | 0.00 | 58 | 1011.4 |
| 20260504031856 | 65 | 227 | 0.0 | 4.3 | 0.00 | 0.00 | 0.00 | 59 | 1011.2 |
| 20260504031353 | 64 | 251 | 0.0 | 1.7 | 0.00 | 0.00 | 0.00 | 62 | 1011.4 |
| 20260504030850 | 65 | 151 | 0.0 | 1.7 | 0.00 | 0.00 | 0.00 | 61 | 1011.3 |
| 20260504030347 | 66 | 152 | 1.7 | 1.7 | 0.00 | 0.00 | 0.00 | 58 | 1011.4 |
| 20260504025843 | 66 | 187 | 0.0 | 1.7 | 0.00 | 0.00 | 0.00 | 58 | 1011.1 |
| 20260504025340 | 67 | 140 | 1.7 | 1.7 | 0.00 | 0.00 | 0.00 | 57 | 1010.9 |
| 20260504024837 | 67 | 180 | 0.0 | 1.7 | 0.00 | 0.00 | 0.00 | 56 | 1010.8 |
| 20260504024333 | 67 | 166 | 0.0 | 1.7 | 0.00 | 0.00 | 0.00 | 56 | 1010.8 |
| 20260504023830 | 67 | 180 | 0.0 | 1.7 | 0.00 | 0.00 | 0.00 | 55 | 1010.9 |
| 20260504023327 | 67 | 234 | 0.9 | 1.7 | 0.00 | 0.00 | 0.00 | 53 | 1011.0 |
| 20260504022823 | 68 | 229 | 1.7 | 2.6 | 0.00 | 0.00 | 0.00 | 53 | 1011.0 |
| 20260504022320 | 68 | 180 | 0.0 | 2.6 | 0.00 | 0.00 | 0.00 | 53 | 1010.7 |
| 20260504021816 | 68 | 111 | 0.0 | 1.7 | 0.00 | 0.00 | 0.00 | 52 | 1010.6 |
| 20260504021314 | 69 | 270 | 0.0 | 2.6 | 0.00 | 0.00 | 0.00 | 52 | 1010.6 |
| 20260504020811 | 69 | 243 | 0.0 | 2.6 | 0.00 | 0.00 | 0.00 | 52 | 1010.3 |
| 20260504020308 | 69 | 140 | 1.7 | 2.6 | 0.00 | 0.00 | 0.00 | 51 | 1010.8 |
| 20260504015803 | 70 | 167 | 0.0 | 3.5 | 0.00 | 0.00 | 0.00 | 51 | 1010.6 |
| 20260504015300 | 70 | 154 | 1.7 | 6.1 | 0.00 | 0.00 | 0.00 | 50 | 1010.7 |
| 20260504014755 | 70 | 180 | 1.7 | 5.2 | 0.00 | 0.00 | 0.00 | 49 | 1010.2 |
| 20260504014252 | 71 | 205 | 2.6 | 5.2 | 0.00 | 0.00 | 0.00 | 49 | 1010.4 |
| 20260504013750 | 71 | 202 | 2.6 | 4.3 | 0.00 | 0.00 | 0.00 | 49 | 1010.2 |
| 20260504013248 | 71 | 162 | 2.6 | 5.2 | 0.00 | 0.00 | 0.00 | 48 | 1010.6 |
| 20260504012743 | 71 | 181 | 4.3 | 6.1 | 0.00 | 0.00 | 0.00 | 48 | 1010.4 |
| 20260504012242 | 72 | 167 | 2.6 | 3.5 | 0.00 | 0.00 | 0.00 | 47 | 1010.3 |
| 20260504011738 | 72 | 178 | 2.6 | 4.3 | 0.00 | 0.00 | 0.00 | 47 | 1010.7 |
| 20260504011235 | 73 | 227 | 2.6 | 5.2 | 0.00 | 0.00 | 0.00 | 47 | 1010.4 |
| 20260504010731 | 73 | 204 | 1.7 | 3.5 | 0.00 | 0.00 | 0.00 | 46 | 1010.6 |
| 20260504010227 | 73 | 215 | 0.9 | 4.3 | 0.00 | 0.00 | 0.00 | 46 | 1010.6 |
| 20260504005724 | 73 | 230 | 3.5 | 3.5 | 0.00 | 0.00 | 0.00 | 46 | 1010.6 |
| 20260504005221 | 74 | 241 | 2.6 | 6.1 | 0.00 | 0.00 | 0.00 | 45 | 1010.7 |
| 20260504004719 | 74 | 204 | 1.7 | 5.2 | 0.00 | 0.00 | 0.00 | 45 | 1010.9 |
| 20260504004215 | 74 | 171 | 1.7 | 4.3 | 0.00 | 0.00 | 0.00 | 44 | 1010.6 |
| 20260504003712 | 75 | 234 | 4.3 | 6.1 | 0.00 | 0.00 | 0.00 | 41 | 1010.6 |
| 20260504003209 | 76 | 238 | 3.5 | 3.5 | 0.00 | 0.00 | 0.00 | 39 | 1010.7 |
| 20260504002706 | 76 | 253 | 2.6 | 4.3 | 0.00 | 0.00 | 0.00 | 39 | 1010.6 |
| 20260504002203 | 76 | 258 | 4.3 | 6.1 | 0.00 | 0.00 | 0.00 | 38 | 1010.7 |
| 20260504001701 | 76 | 241 | 4.3 | 7.0 | 0.00 | 0.00 | 0.00 | 37 | 1010.8 |
| 20260504001157 | 76 | 227 | 2.6 | 7.0 | 0.00 | 0.00 | 0.00 | 37 | 1010.9 |
| 20260504000654 | 76 | 237 | 4.3 | 6.1 | 0.00 | 0.00 | 0.00 | 36 | 1010.9 |
| 20260504000151 | 76 | 249 | 5.2 | 7.0 | 0.00 | 0.00 | 0.00 | 37 | 1010.9 |
| 20260503235649 | 77 | 218 | 2.6 | 6.1 | 0.00 | 0.00 | 0.00 | 36 | 1010.8 |
| 20260503235145 | 77 | 258 | 4.3 | 6.1 | 0.00 | 0.00 | 0.00 | 36 | 1011.0 |
| 20260503234644 | 77 | 270 | 0.0 | 4.3 | 0.00 | 0.00 | 0.00 | 35 | 1011.0 |
| 20260503234141 | 77 | 203 | 1.7 | 6.1 | 0.00 | 0.00 | 0.00 | 38 | 1011.2 |
| 20260503233638 | 77 | 208 | 0.0 | 4.3 | 0.00 | 0.00 | 0.00 | 39 | 1011.3 |
| 20260503233133 | 77 | 164 | 4.3 | 9.6 | 0.00 | 0.00 | 0.00 | 40 | 1011.2 |
| 20260503232631 | 76 | 159 | 7.8 | 9.6 | 0.00 | 0.00 | 0.00 | 41 | 1011.1 |
| 20260503232128 | 76 | 250 | 3.5 | 9.6 | 0.00 | 0.00 | 0.00 | 41 | 1011.1 |
| 20260503231626 | 76 | 181 | 4.3 | 11.3 | 0.00 | 0.00 | 0.00 | 42 | 1011.3 |
| 20260503231122 | 76 | 192 | 3.5 | 10.4 | 0.00 | 0.00 | 0.00 | 42 | 1011.5 |
| 20260503230619 | 76 | 152 | 1.7 | 10.4 | 0.00 | 0.00 | 0.00 | 42 | 1011.4 |
| 20260503230116 | 76 | 153 | 3.5 | 7.8 | 0.00 | 0.00 | 0.00 | 42 | 1011.3 |
| 20260503225614 | 77 | 225 | 2.6 | 7.0 | 0.00 | 0.00 | 0.00 | 41 | 1011.3 |
| 20260503225113 | 76 | 161 | 2.6 | 7.8 | 0.00 | 0.00 | 0.00 | 42 | 1011.4 |
| 20260503224611 | 76 | 151 | 5.2 | 11.3 | 0.00 | 0.00 | 0.00 | 42 | 1011.6 |
| 20260503224109 | 75 | 195 | 4.3 | 12.2 | 0.00 | 0.00 | 0.00 | 43 | 1011.6 |
| 20260503223607 | 75 | 159 | 6.1 | 13.9 | 0.00 | 0.00 | 0.00 | 43 | 1011.6 |
| 20260503223102 | 75 | 167 | 4.3 | 14.8 | 0.00 | 0.00 | 0.00 | 43 | 1011.4 |
| 20260503222600 | 75 | 175 | 4.3 | 7.8 | 0.00 | 0.00 | 0.00 | 43 | 1011.5 |
| 20260503222058 | 76 | 160 | 8.7 | 8.7 | 0.00 | 0.00 | 0.00 | 42 | 1011.8 |
| 20260503221556 | 76 | 161 | 4.3 | 12.2 | 0.00 | 0.00 | 0.00 | 42 | 1011.5 |
| 20260503221053 | 76 | 179 | 6.1 | 12.2 | 0.00 | 0.00 | 0.00 | 42 | 1011.6 |
| 20260503220549 | 75 | 173 | 0.0 | 9.6 | 0.00 | 0.00 | 0.00 | 42 | 1011.9 |
| 20260503220046 | 76 | 202 | 4.3 | 9.6 | 0.00 | 0.00 | 0.00 | 41 | 1012.2 |
| 20260503215543 | 76 | 155 | 7.0 | 13.9 | 0.00 | 0.00 | 0.00 | 41 | 1012.2 |
| 20260503215040 | 78 | 165 | 3.5 | 7.8 | 0.00 | 0.00 | 0.00 | 40 | 1012.3 |
| 20260503214539 | 76 | 155 | 6.1 | 12.2 | 0.00 | 0.00 | 0.00 | 40 | 1012.5 |
| 20260503214035 | 78 | 237 | 5.2 | 11.3 | 0.00 | 0.00 | 0.00 | 40 | 1012.5 |
| 20260503213533 | 77 | 131 | 3.5 | 13.0 | 0.00 | 0.00 | 0.00 | 40 | 1012.9 |
| 20260503213029 | 76 | 170 | 4.3 | 9.6 | 0.00 | 0.00 | 0.00 | 42 | 1012.7 |
| 20260503212527 | 75 | 172 | 7.8 | 13.0 | 0.00 | 0.00 | 0.00 | 42 | 1012.9 |
| 20260503212024 | 75 | 173 | 5.2 | 13.9 | 0.00 | 0.00 | 0.00 | 42 | 1012.9 |
| 20260503211521 | 75 | 184 | 3.5 | 10.4 | 0.00 | 0.00 | 0.00 | 41 | 1013.2 |
| 20260503211017 | 75 | 152 | 7.8 | 7.8 | 0.00 | 0.00 | 0.00 | 42 | 1013.5 |
| 20260503210514 | 75 | 152 | 6.1 | 9.6 | 0.00 | 0.00 | 0.00 | 42 | 1013.3 |
| 20260503210009 | 74 | 169 | 1.7 | 6.1 | 0.00 | 0.00 | 0.00 | 43 | 1013.8 |
| 20260503205506 | 74 | 166 | 8.7 | 8.7 | 0.00 | 0.00 | 0.00 | 43 | 1013.8 |
| 20260503205003 | 75 | 163 | 7.8 | 9.6 | 0.00 | 0.00 | 0.00 | 43 | 1014.1 |
| 20260503204500 | 75 | 128 | 4.3 | 9.6 | 0.00 | 0.00 | 0.00 | 42 | 1013.8 |
| 20260503203956 | 75 | 165 | 7.8 | 13.9 | 0.00 | 0.00 | 0.00 | 41 | 1014.2 |
| 20260503203454 | 75 | 194 | 4.3 | 7.8 | 0.00 | 0.00 | 0.00 | 43 | 1014.3 |
| 20260503202950 | 75 | 164 | 6.1 | 11.3 | 0.00 | 0.00 | 0.00 | 42 | 1014.3 |
| 20260503202449 | 74 | 160 | 3.5 | 7.0 | 0.00 | 0.00 | 0.00 | 42 | 1014.5 |
| 20260503201947 | 74 | 155 | 3.5 | 12.2 | 0.00 | 0.00 | 0.00 | 43 | 1014.5 |
| 20260503201444 | 75 | 169 | 5.2 | 8.7 | 0.00 | 0.00 | 0.00 | 42 | 1014.7 |
| 20260503200941 | 74 | 196 | 6.1 | 9.6 | 0.00 | 0.00 | 0.00 | 43 | 1014.8 |
| 20260503200438 | 74 | 174 | 6.1 | 9.6 | 0.00 | 0.00 | 0.00 | 44 | 1014.7 |
| 20260503195934 | 73 | 220 | 6.1 | 9.6 | 0.00 | 0.00 | 0.00 | 43 | 1014.7 |
| 20260503195432 | 73 | 189 | 4.3 | 11.3 | 0.00 | 0.00 | 0.00 | 43 | 1014.8 |
| 20260503194928 | 72 | 134 | 6.1 | 8.7 | 0.00 | 0.00 | 0.00 | 44 | 1015.1 |
| 20260503194425 | 73 | 157 | 7.0 | 10.4 | 0.00 | 0.00 | 0.00 | 44 | 1015.1 |
| 20260503193920 | 73 | 162 | 9.6 | 9.6 | 0.00 | 0.00 | 0.00 | 44 | 1015.0 |
| 20260503193416 | 72 | 185 | 7.0 | 10.4 | 0.00 | 0.00 | 0.00 | 44 | 1015.3 |
| 20260503192912 | 72 | 180 | 8.7 | 10.4 | 0.00 | 0.00 | 0.00 | 45 | 1015.3 |
| 20260503192408 | 73 | 176 | 11.3 | 11.3 | 0.00 | 0.00 | 0.00 | 45 | 1015.6 |
| 20260503191904 | 72 | 231 | 4.3 | 10.4 | 0.00 | 0.00 | 0.00 | 46 | 1015.4 |
| 20260503191402 | 71 | 153 | 7.0 | 11.3 | 0.00 | 0.00 | 0.00 | 46 | 1015.6 |
| 20260503190858 | 72 | 182 | 2.6 | 8.7 | 0.00 | 0.00 | 0.00 | 46 | 1015.7 |
| 20260503190355 | 71 | 180 | 3.5 | 13.0 | 0.00 | 0.00 | 0.00 | 46 | 1015.7 |
| 20260503185852 | 71 | 156 | 6.1 | 12.2 | 0.00 | 0.00 | 0.00 | 45 | 1015.9 |
| 20260503185348 | 71 | 181 | 7.0 | 9.6 | 0.00 | 0.00 | 0.00 | 46 | 1016.0 |
| 20260503184848 | 72 | 168 | 8.7 | 12.2 | 0.00 | 0.00 | 0.00 | 46 | 1016.2 |
| 20260503184344 | 71 | 184 | 6.1 | 13.0 | 0.00 | 0.00 | 0.00 | 46 | 1016.3 |
| 20260503183840 | 71 | 227 | 5.2 | 11.3 | 0.00 | 0.00 | 0.00 | 46 | 1016.3 |
| 20260503183338 | 71 | 165 | 3.5 | 9.6 | 0.00 | 0.00 | 0.00 | 45 | 1016.6 |
| 20260503182835 | 71 | 180 | 3.5 | 11.3 | 0.00 | 0.00 | 0.00 | 45 | 1016.6 |
| 20260503182334 | 71 | 178 | 6.1 | 9.6 | 0.00 | 0.00 | 0.00 | 46 | 1016.8 |
| 20260503181831 | 70 | 143 | 6.1 | 11.3 | 0.00 | 0.00 | 0.00 | 46 | 1017.0 |
| 20260503181328 | 70 | 118 | 2.6 | 10.4 | 0.00 | 0.00 | 0.00 | 45 | 1016.9 |
| 20260503180824 | 71 | 168 | 3.5 | 12.2 | 0.00 | 0.00 | 0.00 | 46 | 1017.0 |
| 20260503180322 | 71 | 270 | 2.6 | 8.7 | 0.00 | 0.00 | 0.00 | 46 | 1017.0 |
| 20260503175818 | 69 | 212 | 2.6 | 9.6 | 0.00 | 0.00 | 0.00 | 46 | 1017.1 |
| 20260503175317 | 69 | 173 | 4.3 | 9.6 | 0.00 | 0.00 | 0.00 | 46 | 1017.1 |
| 20260503174812 | 70 | 178 | 3.5 | 11.3 | 0.00 | 0.00 | 0.00 | 47 | 1017.3 |
| 20260503174311 | 69 | 180 | 8.7 | 11.3 | 0.00 | 0.00 | 0.00 | 47 | 1017.6 |
| 20260503173806 | 69 | 200 | 5.2 | 9.6 | 0.00 | 0.00 | 0.00 | 48 | 1017.6 |
| 20260503173302 | 68 | 165 | 5.2 | 11.3 | 0.00 | 0.00 | 0.00 | 47 | 1017.6 |
| 20260503172759 | 69 | 195 | 4.3 | 11.3 | 0.00 | 0.00 | 0.00 | 48 | 1017.7 |
| 20260503172256 | 70 | 154 | 8.7 | 9.6 | 0.00 | 0.00 | 0.00 | 47 | 1018.0 |
| 20260503171752 | 69 | 175 | 5.2 | 9.6 | 0.00 | 0.00 | 0.00 | 46 | 1018.2 |
| 20260503171249 | 69 | 175 | 2.6 | 9.6 | 0.00 | 0.00 | 0.00 | 47 | 1018.3 |
| 20260503170746 | 68 | 218 | 3.5 | 9.6 | 0.00 | 0.00 | 0.00 | 48 | 1018.2 |
| 20260503170243 | 69 | 198 | 7.8 | 9.6 | 0.00 | 0.00 | 0.00 | 49 | 1018.5 |
| 20260503160205 | 64 | 192 | 5.2 | 9.6 | 0.00 | 0.00 | 0.00 | 60 | 1018.8 |
| 20260503150635 | 60 | 156 | 0.0 | 3.5 | 0.00 | 0.00 | 0.00 | 71 | 1019.5 |
| 20260503150131 | 59 | 114 | 1.7 | 3.5 | 0.00 | 0.00 | 0.00 | 73 | 1019.4 |
| 20260503131025 | 49 | 180 | 0.0 | 1.7 | 0.00 | 0.00 | 0.00 | 92 | 1019.6 |
| 20260503130522 | 48 | 168 | 0.0 | 2.6 | 0.00 | 0.00 | 0.00 | 92 | 1019.5 |
| 20260503110407 | 48 | 180 | 0.0 | 0.0 | 0.00 | 0.00 | 0.00 | 92 | 1018.8 |
| 20260503090258 | 49 | 3 | 0.0 | 2.6 | 0.00 | 0.00 | 0.00 | 91 | 1019.3 |
| 20260503081225 | 51 | 172 | 0.0 | 0.0 | 0.00 | 0.00 | 0.00 | 90 | 1019.4 |
| 20260503080721 | 51 | 157 | 0.0 | 1.7 | 0.00 | 0.00 | 0.00 | 90 | 1019.3 |
| 20260503080218 | 51 | 120 | 0.0 | 0.0 | 0.00 | 0.00 | 0.00 | 90 | 1019.4 |
| 20260503072655 | 52 | 151 | 0.0 | 1.7 | 0.00 | 0.00 | 0.00 | 89 | 1019.6 |
| 20260503072151 | 52 | 254 | 0.0 | 0.9 | 0.00 | 0.00 | 0.00 | 89 | 1019.8 |
| 20260503071648 | 52 | 270 | 0.0 | 1.7 | 0.00 | 0.00 | 0.00 | 89 | 1019.6 |
| 20260503071145 | 52 | 286 | 0.0 | 0.9 | 0.00 | 0.00 | 0.00 | 89 | 1019.5 |
| 20260503070642 | 51 | 90 | 0.0 | 0.9 | 0.00 | 0.00 | 0.00 | 89 | 1019.6 |
| 20260503070140 | 51 | 114 | 0.0 | 0.9 | 0.00 | 0.00 | 0.00 | 89 | 1019.4 |
| 20260503060104 | 53 | 14 | 0.0 | 0.0 | 0.00 | 0.00 | 0.00 | 84 | 1019.5 |
| 20260503055055 | 54 | 0 | 0.0 | 1.7 | 0.00 | 0.00 | 0.00 | 82 | 1019.4 |
| 20260503054551 | 54 | 23 | 0.0 | 0.9 | 0.00 | 0.00 | 0.00 | 81 | 1019.7 |
| 20260503054049 | 55 | 20 | 0.0 | 1.7 | 0.00 | 0.00 | 0.00 | 80 | 1019.4 |
| 20260503053547 | 55 | 74 | 0.0 | 0.9 | 0.00 | 0.00 | 0.00 | 79 | 1019.3 |
| 20260503053044 | 55 | 294 | 0.0 | 0.9 | 0.00 | 0.00 | 0.00 | 80 | 1019.3 |
| 20260503052541 | 55 | 254 | 0.0 | 0.0 | 0.00 | 0.00 | 0.00 | 79 | 1019.4 |
| 20260503052037 | 56 | 254 | 0.0 | 0.0 | 0.00 | 0.00 | 0.00 | 79 | 1019.3 |
| 20260503051533 | 56 | 254 | 0.0 | 0.9 | 0.00 | 0.00 | 0.00 | 80 | 1019.3 |
| 20260503051031 | 56 | 270 | 0.0 | 0.0 | 0.00 | 0.00 | 0.00 | 80 | 1019.4 |
| 20260503050526 | 56 | 254 | 0.0 | 0.0 | 0.00 | 0.00 | 0.00 | 80 | 1019.4 |
| 20260503050024 | 56 | 254 | 0.0 | 0.0 | 0.00 | 0.00 | 0.00 | 79 | 1019.5 |
| 20260503045521 | 56 | 254 | 0.0 | 0.0 | 0.00 | 0.00 | 0.00 | 79 | 1019.4 |
| 20260503045018 | 56 | 254 | 0.0 | 0.9 | 0.00 | 0.00 | 0.00 | 79 | 1019.4 |
| 20260503044515 | 56 | 0 | 0.0 | 0.0 | 0.00 | 0.00 | 0.00 | 78 | 1019.5 |
| 20260503044013 | 56 | 7 | 0.0 | 1.7 | 0.00 | 0.00 | 0.00 | 77 | 1019.3 |
| 20260503043508 | 56 | 243 | 0.0 | 0.0 | 0.00 | 0.00 | 0.00 | 76 | 1019.4 |
| 20260503043005 | 56 | 243 | 0.0 | 0.0 | 0.00 | 0.00 | 0.00 | 75 | 1019.1 |
| 20260503042502 | 57 | 243 | 0.0 | 0.0 | 0.00 | 0.00 | 0.00 | 74 | 1019.2 |
| 20260503041958 | 57 | 270 | 0.0 | 0.0 | 0.00 | 0.00 | 0.00 | 73 | 1019.3 |
| 20260503041455 | 57 | 220 | 0.0 | 1.7 | 0.00 | 0.00 | 0.00 | 73 | 1019.3 |
| 20260503040953 | 57 | 151 | 0.0 | 0.0 | 0.00 | 0.00 | 0.00 | 73 | 1019.2 |
| 20260503040450 | 58 | 151 | 0.0 | 0.9 | 0.00 | 0.00 | 0.00 | 72 | 1019.1 |
| 20260503035947 | 58 | 240 | 0.0 | 0.9 | 0.00 | 0.00 | 0.00 | 70 | 1019.4 |
| 20260503035444 | 58 | 156 | 1.7 | 2.6 | 0.00 | 0.00 | 0.00 | 70 | 1019.3 |
| 20260503034942 | 58 | 144 | 1.7 | 1.7 | 0.00 | 0.00 | 0.00 | 70 | 1019.0 |
| 20260503034439 | 58 | 168 | 0.9 | 2.6 | 0.00 | 0.00 | 0.00 | 70 | 1019.2 |
| 20260503033935 | 58 | 161 | 2.6 | 2.6 | 0.00 | 0.00 | 0.00 | 70 | 1019.1 |
| 20260503033433 | 59 | 131 | 0.0 | 2.6 | 0.00 | 0.00 | 0.00 | 69 | 1019.0 |